This is the latest recevied weather packets stored in our database for station/object KD9WYV. If no packets are shown the sender has not sent any weather packets the latest 10 day(s).
| Time | Temp. | Humidity | Pressure | Rain* | Wind** | Luminosity | Snow |
|---|---|---|---|---|---|---|---|
| 1777393624 | 15.56° C | 69% | 1015.8 hPa | 0 mm | - | 461 W/m² | - |
| 1777393319 | 15.56° C | 68% | 1015.7 hPa | 0 mm | - | 492 W/m² | - |
| 1777393016 | 15.56° C | 70% | 1015.6 hPa | 0 mm | - | 768 W/m² | - |
| 1777392711 | 15.56° C | 70% | 1015.6 hPa | 0 mm | - | 510 W/m² | - |
| 1777392408 | 15.56° C | 69% | 1015.7 hPa | 0 mm | - | 419 W/m² | - |
| 1777392104 | 15.56° C | 69% | 1015.8 hPa | 0 mm | - | 398 W/m² | - |
| 1777391799 | 16.11° C | 68% | 1015.6 hPa | 0 mm | - | 349 W/m² | - |
| 1777391495 | 16.11° C | 69% | 1015.7 hPa | 0 mm | - | 387 W/m² | - |
| 1777391191 | 15.56° C | 70% | 1015.5 hPa | 0 mm | - | 1105 W/m² | - |
| 1777390887 | 15.56° C | 70% | 1015.4 hPa | 0 mm | - | 450 W/m² | - |
| 1777390584 | 15° C | 71% | 1015.4 hPa | 0 mm | - | 526 W/m² | - |
| 1777390281 | 14.44° C | 73% | 1015.5 hPa | 0 mm | - | 531 W/m² | - |
| 1777389977 | 14.44° C | 73% | 1015.6 hPa | 0 mm | - | 448 W/m² | - |
| 1777389674 | 14.44° C | 72% | 1015.5 hPa | 0 mm | - | 349 W/m² | - |
| 1777389370 | 14.44° C | 74% | 1015.3 hPa | 0 mm | - | 310 W/m² | - |
| 1777389068 | 14.44° C | 74% | 1015.3 hPa | 0 mm | - | 341 W/m² | - |
| 1777388765 | 14.44° C | 74% | 1015.1 hPa | 0 mm | - | 296 W/m² | - |
| 1777388463 | 14.44° C | 74% | 1015.2 hPa | 0 mm | - | 316 W/m² | - |
| 1777388162 | 14.44° C | 75% | 1015 hPa | 0 mm | - | 355 W/m² | - |
| 1777387858 | 14.44° C | 75% | 1015.1 hPa | 0 mm | - | 351 W/m² | - |
| 1777387555 | 14.44° C | 76% | 1014.7 hPa | 0 mm | - | 319 W/m² | - |
| 1777387250 | 14.44° C | 77% | 1015.1 hPa | 0 mm | - | 250 W/m² | - |
| 1777386945 | 13.89° C | 78% | 1014.7 hPa | 0 mm | - | 314 W/m² | - |
| 1777386643 | 13.89° C | 78% | 1014.7 hPa | 0 mm | - | 295 W/m² | - |
| 1777386340 | 13.89° C | 79% | 1015 hPa | 0 mm | - | 273 W/m² | - |
* Rain latest hour (hover to see other rain measurements)
** Current wind speed in m/s (hover to see current wind gust speed)